Back to catalog

STARLINK-31853

AliveCommunicationsVLEO
NORAD 59933·PAYLOAD·🇺🇸 United States

Launched Jun 1, 2024 from Cape Canaveral Space Force Station

Loading…

Next Passes (next 24 hours)

TLE

FreshSource: CelesTrak SupGP

Epoch: Sep 14, 2026, 20:54 UTC

1 59933C 24106M   26257.87131944 -.00003012  00000+0 -10904-3 0  2572
2 59933  43.0012 344.1450 0001468 281.8300 144.2379 15.27591631    14

Track STARLINK-31853 in real time with AllMySat

Download on the App Store